| time (UTC) | temp C | wind direction | speed KPH | gust KPH | rain 1hr cm | rain 24hr cm | rain mn cm | humidity % | barometer mb |
| 20260509180652 | 17 | 303 | 1.6 | 14.5 | 0.00 | 0.00 | 0.00 | 42 | 1025.6 |
| 20260509175651 | 17 | 283 | 4.8 | 11.3 | 0.00 | 0.00 | 0.00 | 47 | 1025.5 |
| 20260509174618 | 17 | 278 | 3.2 | 12.9 | 0.00 | 0.00 | 0.00 | 44 | 1025.4 |
| 20260509173617 | 16 | 14 | 3.2 | 16.1 | 0.00 | 0.00 | 0.00 | 43 | 1025.4 |
| 20260509172615 | 16 | 281 | 3.2 | 16.1 | 0.00 | 0.00 | 0.00 | 46 | 1025.4 |
| 20260509171614 | 16 | 291 | 1.6 | 14.5 | 0.00 | 0.00 | 0.00 | 47 | 1025.4 |
| 20260509170614 | 15 | 77 | 3.2 | 6.4 | 0.00 | 0.00 | 0.00 | 48 | 1025.3 |
| 20260509165613 | 15 | 275 | 3.2 | 4.8 | 0.00 | 0.00 | 0.00 | 50 | 1025.2 |
| 20260509164612 | 15 | 353 | 3.2 | 8.0 | 0.00 | 0.00 | 0.00 | 50 | 1025.3 |
| 20260509163611 | 15 | 296 | 3.2 | 9.7 | 0.00 | 0.00 | 0.00 | 52 | 1025.3 |
| 20260509162610 | 14 | 175 | 1.6 | 9.7 | 0.00 | 0.00 | 0.00 | 51 | 1025.2 |
| 20260509161608 | 13 | 303 | 3.2 | 4.8 | 0.00 | 0.00 | 0.00 | 55 | 1025.1 |
| 20260509160536 | 13 | 32 | 1.6 | 4.8 | 0.00 | 0.00 | 0.00 | 55 | 1025.1 |
| 20260509155504 | 13 | 76 | 1.6 | 4.8 | 0.00 | 0.00 | 0.00 | 54 | 1025.1 |
| 20260509154503 | 13 | 58 | 1.6 | 6.4 | 0.00 | 0.00 | 0.00 | 55 | 1025.2 |
| 20260509153501 | 13 | 27 | 1.6 | 4.8 | 0.00 | 0.00 | 0.00 | 54 | 1025.4 |
| 20260509152358 | 13 | 51 | 1.6 | 4.8 | 0.00 | 0.00 | 0.00 | 54 | 1025.5 |
| 20260509151357 | 12 | 23 | 3.2 | 4.8 | 0.00 | 0.00 | 0.00 | 54 | 1025.6 |
| 20260509150356 | 12 | 73 | 1.6 | 6.4 | 0.00 | 0.00 | 0.00 | 54 | 1025.7 |
| 20260509145355 | 12 | 57 | 1.6 | 6.4 | 0.00 | 0.00 | 0.00 | 54 | 1025.8 |
| 20260509144354 | 12 | 108 | 1.6 | 8.0 | 0.00 | 0.00 | 0.00 | 56 | 1025.8 |
| 20260509143353 | 11 | 77 | 3.2 | 9.7 | 0.00 | 0.00 | 0.00 | 57 | 1025.7 |
| 20260509142352 | 11 | 72 | 3.2 | 6.4 | 0.00 | 0.00 | 0.00 | 57 | 1025.3 |
| 20260509141351 | 10 | 66 | 1.6 | 6.4 | 0.00 | 0.00 | 0.00 | 60 | 1025.5 |
| 20260509140350 | 9 | 109 | 3.2 | 6.4 | 0.00 | 0.00 | 0.00 | 63 | 1025.1 |
| 20260509135318 | 8 | 76 | 1.6 | 8.0 | 0.00 | 0.00 | 0.00 | 64 | 1025.1 |
| 20260509134316 | 8 | 140 | 1.6 | 8.0 | 0.00 | 0.00 | 0.00 | 65 | 1025.1 |
| 20260509133316 | 8 | 104 | 1.6 | 8.0 | 0.00 | 0.00 | 0.00 | 64 | 1025.2 |
| 20260509132314 | 9 | 98 | 1.6 | 9.7 | 0.00 | 0.00 | 0.00 | 63 | 1025.3 |
| 20260509131242 | 9 | 70 | 3.2 | 12.9 | 0.00 | 0.00 | 0.00 | 60 | 1025.4 |
| 20260509130240 | 9 | 248 | 4.8 | 12.9 | 0.00 | 0.00 | 0.00 | 61 | 1025.4 |
| 20260509125239 | 9 | 244 | 4.8 | 11.3 | 0.00 | 0.00 | 0.00 | 59 | 1025.3 |
| 20260509124238 | 9 | 223 | 3.2 | 16.1 | 0.00 | 0.00 | 0.00 | 58 | 1025.2 |
| 20260509123237 | 9 | 222 | 4.8 | 16.1 | 0.00 | 0.00 | 0.00 | 58 | 1025.0 |
| 20260509122236 | 9 | 225 | 3.2 | 11.3 | 0.00 | 0.00 | 0.00 | 58 | 1024.8 |
| 20260509121235 | 9 | 229 | 3.2 | 9.7 | 0.00 | 0.00 | 0.00 | 58 | 1024.8 |
| 20260509120234 | 9 | 216 | 1.6 | 11.3 | 0.00 | 0.00 | 0.00 | 59 | 1024.8 |
| 20260509115233 | 9 | 226 | 3.2 | 11.3 | 0.00 | 0.00 | 0.00 | 58 | 1024.5 |
| 20260509114232 | 9 | 223 | 3.2 | 9.7 | 0.00 | 0.00 | 0.00 | 57 | 1024.6 |
| 20260509113231 | 9 | 220 | 3.2 | 9.7 | 0.00 | 0.00 | 0.00 | 57 | 1024.7 |
| 20260509112158 | 10 | 227 | 3.2 | 11.3 | 0.00 | 0.00 | 0.00 | 56 | 1024.8 |
| 20260509111157 | 10 | 235 | 3.2 | 11.3 | 0.00 | 0.00 | 0.00 | 55 | 1024.8 |
| 20260509110054 | 10 | 232 | 3.2 | 11.3 | 0.00 | 0.00 | 0.00 | 55 | 1024.8 |
| 20260509105052 | 10 | 243 | 3.2 | 11.3 | 0.00 | 0.00 | 0.00 | 54 | 1024.8 |
| 20260509104051 | 10 | 227 | 6.4 | 12.9 | 0.00 | 0.00 | 0.00 | 53 | 1025.0 |
| 20260509103050 | 10 | 228 | 3.2 | 12.9 | 0.00 | 0.00 | 0.00 | 53 | 1025.0 |
| 20260509102049 | 10 | 244 | 4.8 | 14.5 | 0.00 | 0.00 | 0.00 | 54 | 1025.0 |
| 20260509101049 | 10 | 231 | 4.8 | 9.7 | 0.00 | 0.00 | 0.00 | 55 | 1024.9 |
| 20260509100048 | 10 | 221 | 4.8 | 8.0 | 0.00 | 0.00 | 0.00 | 55 | 1024.5 |
| 20260509095015 | 10 | 223 | 3.2 | 9.7 | 0.00 | 0.00 | 0.00 | 54 | 1024.6 |
| 20260509094013 | 11 | 227 | 4.8 | 12.9 | 0.00 | 0.00 | 0.00 | 53 | 1024.7 |
| 20260509092940 | 11 | 226 | 3.2 | 14.5 | 0.00 | 0.00 | 0.00 | 52 | 1024.3 |
| 20260509091939 | 11 | 223 | 4.8 | 12.9 | 0.00 | 0.00 | 0.00 | 51 | 1024.2 |
| 20260509090938 | 11 | 224 | 4.8 | 12.9 | 0.00 | 0.00 | 0.00 | 51 | 1024.3 |
| 20260509085938 | 11 | 227 | 4.8 | 12.9 | 0.00 | 0.00 | 0.00 | 50 | 1024.4 |
| 20260509084937 | 11 | 220 | 3.2 | 11.3 | 0.00 | 0.00 | 0.00 | 49 | 1024.4 |
| 20260509083905 | 11 | 218 | 3.2 | 14.5 | 0.00 | 0.00 | 0.00 | 48 | 1024.5 |
| 20260509082904 | 12 | 230 | 3.2 | 17.7 | 0.00 | 0.00 | 0.00 | 47 | 1024.5 |
| 20260509081903 | 12 | 237 | 4.8 | 17.7 | 0.00 | 0.00 | 0.00 | 47 | 1024.5 |
| 20260509080901 | 12 | 224 | 3.2 | 14.5 | 0.00 | 0.00 | 0.00 | 46 | 1024.6 |
| 20260509075727 | 12 | 230 | 3.2 | 16.1 | 0.00 | 0.00 | 0.00 | 46 | 1024.2 |
| 20260509074725 | 12 | 237 | 3.2 | 14.5 | 0.00 | 0.00 | 0.00 | 45 | 1024.1 |
| 20260509073725 | 12 | 237 | 4.8 | 16.1 | 0.00 | 0.00 | 0.00 | 45 | 1024.1 |
| 20260509072652 | 11 | 233 | 3.2 | 12.9 | 0.00 | 0.00 | 0.00 | 46 | 1023.8 |
| 20260509071548 | 11 | 219 | 4.8 | 12.9 | 0.00 | 0.00 | 0.00 | 46 | 1023.6 |
| 20260509070547 | 11 | 231 | 3.2 | 12.9 | 0.00 | 0.00 | 0.00 | 46 | 1023.5 |
| 20260509065546 | 10 | 222 | 3.2 | 12.9 | 0.00 | 0.00 | 0.00 | 47 | 1023.3 |
| 20260509064545 | 10 | 228 | 4.8 | 12.9 | 0.00 | 0.00 | 0.00 | 48 | 1022.9 |
| 20260509063543 | 10 | 221 | 3.2 | 11.3 | 0.00 | 0.00 | 0.00 | 50 | 1022.8 |
| 20260509062542 | 10 | 220 | 3.2 | 8.0 | 0.00 | 0.00 | 0.00 | 52 | 1022.8 |
| 20260509061541 | 9 | 222 | 1.6 | 9.7 | 0.00 | 0.00 | 0.00 | 56 | 1022.7 |
| 20260509060509 | 8 | 220 | 3.2 | 9.7 | 0.00 | 0.00 | 0.00 | 58 | 1022.5 |
| 20260509055508 | 8 | 217 | 1.6 | 6.4 | 0.00 | 0.00 | 0.00 | 62 | 1022.4 |
| 20260509054506 | 8 | 166 | 1.6 | 4.8 | 0.00 | 0.00 | 0.00 | 66 | 1022.4 |
| 20260509053505 | 9 | 166 | 1.6 | 4.8 | 0.00 | 0.00 | 0.00 | 64 | 1022.6 |
| 20260509052504 | 9 | 165 | 0.0 | 1.6 | 0.00 | 0.00 | 0.00 | 63 | 1022.9 |
| 20260509051503 | 9 | 166 | 1.6 | 1.6 | 0.00 | 0.00 | 0.00 | 63 | 1022.5 |
| 20260509050501 | 10 | 165 | 0.0 | 3.2 | 0.00 | 0.00 | 0.00 | 63 | 1022.5 |
| 20260509045500 | 10 | 165 | 1.6 | 4.8 | 0.00 | 0.00 | 0.00 | 62 | 1022.5 |
| 20260509044459 | 10 | 165 | 1.6 | 4.8 | 0.00 | 0.00 | 0.00 | 62 | 1022.4 |
| 20260509043457 | 10 | 166 | 1.6 | 8.0 | 0.00 | 0.00 | 0.00 | 62 | 1022.2 |
| 20260509042456 | 10 | 163 | 0.0 | 0.0 | 0.00 | 0.00 | 0.00 | 63 | 1022.2 |
| 20260509041455 | 10 | 136 | 0.0 | 0.0 | 0.00 | 0.00 | 0.00 | 63 | 1022.1 |
| 20260509040454 | 11 | 136 | 0.0 | 0.0 | 0.00 | 0.00 | 0.00 | 62 | 1022.1 |
| 20260509035453 | 11 | 136 | 0.0 | 3.2 | 0.00 | 0.00 | 0.00 | 61 | 1021.8 |
| 20260509034452 | 12 | 136 | 1.6 | 3.2 | 0.00 | 0.00 | 0.00 | 61 | 1021.8 |
| 20260509033419 | 12 | 135 | 1.6 | 3.2 | 0.00 | 0.00 | 0.00 | 59 | 1021.5 |
| 20260509032418 | 13 | 136 | 1.6 | 4.8 | 0.00 | 0.00 | 0.00 | 56 | 1021.2 |
| 20260509031417 | 13 | 136 | 1.6 | 4.8 | 0.00 | 0.00 | 0.00 | 55 | 1021.3 |
| 20260509030344 | 15 | 120 | 1.6 | 4.8 | 0.00 | 0.00 | 0.00 | 53 | 1021.1 |
| 20260509025343 | 15 | 90 | 1.6 | 4.8 | 0.00 | 0.00 | 0.00 | 51 | 1021.2 |
| 20260509024340 | 16 | 85 | 3.2 | 6.4 | 0.00 | 0.00 | 0.00 | 47 | 1021.1 |
| 20260509023236 | 16 | 26 | 1.6 | 6.4 | 0.00 | 0.00 | 0.00 | 46 | 1021.0 |
| 20260509022235 | 16 | 27 | 3.2 | 6.4 | 0.00 | 0.00 | 0.00 | 46 | 1020.6 |
| 20260509021234 | 16 | 19 | 1.6 | 4.8 | 0.00 | 0.00 | 0.00 | 46 | 1020.6 |
| 20260509020233 | 16 | 34 | 1.6 | 8.0 | 0.00 | 0.00 | 0.00 | 46 | 1020.6 |
| 20260509015232 | 17 | 13 | 1.6 | 6.4 | 0.00 | 0.00 | 0.00 | 44 | 1020.5 |
| 20260509014231 | 17 | 46 | 1.6 | 14.5 | 0.00 | 0.00 | 0.00 | 44 | 1020.4 |
| 20260509013229 | 17 | 21 | 1.6 | 14.5 | 0.00 | 0.00 | 0.00 | 42 | 1020.0 |
| 20260509012157 | 18 | 7 | 3.2 | 8.0 | 0.00 | 0.00 | 0.00 | 41 | 1020.1 |
| 20260509011156 | 18 | 358 | 1.6 | 8.0 | 0.00 | 0.00 | 0.00 | 37 | 1019.9 |
| 20260509010156 | 20 | 319 | 3.2 | 20.9 | 0.00 | 0.00 | 0.00 | 34 | 1020.0 |
| 20260509005155 | 20 | 300 | 3.2 | 20.9 | 0.00 | 0.00 | 0.00 | 29 | 1020.0 |
| 20260509004154 | 20 | 296 | 3.2 | 19.3 | 0.00 | 0.00 | 0.00 | 30 | 1019.8 |
| 20260509003122 | 18 | 300 | 3.2 | 22.5 | 0.00 | 0.00 | 0.00 | 35 | 1019.6 |
| 20260509002121 | 18 | 296 | 4.8 | 25.7 | 0.00 | 0.00 | 0.00 | 34 | 1019.6 |
| 20260509001120 | 18 | 289 | 4.8 | 25.7 | 0.00 | 0.00 | 0.00 | 35 | 1019.7 |
| 20260509000119 | 18 | 292 | 3.2 | 12.9 | 0.00 | 0.00 | 0.00 | 34 | 1019.7 |
| 20260508235118 | 19 | 294 | 3.2 | 14.5 | 0.00 | 0.00 | 0.00 | 35 | 1019.9 |
| 20260508234045 | 19 | 289 | 3.2 | 14.5 | 0.00 | 0.00 | 0.00 | 32 | 1019.9 |
| 20260508233045 | 19 | 288 | 3.2 | 14.5 | 0.00 | 0.00 | 0.00 | 30 | 1020.0 |
| 20260508232044 | 19 | 307 | 3.2 | 16.1 | 0.00 | 0.00 | 0.00 | 33 | 1020.1 |
| 20260508231042 | 20 | 306 | 4.8 | 16.1 | 0.00 | 0.00 | 0.00 | 30 | 1020.1 |
| 20260508230041 | 19 | 285 | 3.2 | 16.1 | 0.00 | 0.00 | 0.00 | 32 | 1019.7 |
| 20260508225040 | 19 | 296 | 3.2 | 16.1 | 0.00 | 0.00 | 0.00 | 27 | 1019.7 |
| 20260508224039 | 20 | 287 | 3.2 | 14.5 | 0.00 | 0.00 | 0.00 | 29 | 1020.1 |
| 20260508223038 | 20 | 280 | 3.2 | 12.9 | 0.00 | 0.00 | 0.00 | 28 | 1020.2 |
| 20260508222038 | 20 | 282 | 3.2 | 12.9 | 0.00 | 0.00 | 0.00 | 29 | 1020.2 |
| 20260508221037 | 20 | 291 | 3.2 | 20.9 | 0.00 | 0.00 | 0.00 | 32 | 1020.2 |
| 20260508220036 | 19 | 297 | 3.2 | 20.9 | 0.00 | 0.00 | 0.00 | 29 | 1020.1 |
| 20260508215035 | 19 | 273 | 4.8 | 19.3 | 0.00 | 0.00 | 0.00 | 27 | 1020.1 |
| 20260508214003 | 20 | 248 | 3.2 | 19.3 | 0.00 | 0.00 | 0.00 | 25 | 1020.2 |
| 20260508213001 | 19 | 263 | 3.2 | 20.9 | 0.00 | 0.00 | 0.00 | 26 | 1020.1 |
| 20260508212000 | 18 | 257 | 3.2 | 17.7 | 0.00 | 0.00 | 0.00 | 28 | 1020.4 |
| 20260508210959 | 19 | 263 | 4.8 | 16.1 | 0.00 | 0.00 | 0.00 | 27 | 1020.5 |
| 20260508205927 | 19 | 261 | 3.2 | 14.5 | 0.00 | 0.00 | 0.00 | 26 | 1020.6 |
| 20260508204925 | 18 | 260 | 3.2 | 14.5 | 0.00 | 0.00 | 0.00 | 26 | 1020.6 |
| 20260508203924 | 19 | 264 | 4.8 | 16.1 | 0.00 | 0.00 | 0.00 | 27 | 1020.3 |
| 20260508202923 | 19 | 252 | 3.2 | 16.1 | 0.00 | 0.00 | 0.00 | 28 | 1020.3 |
| 20260508201922 | 19 | 259 | 3.2 | 19.3 | 0.00 | 0.00 | 0.00 | 27 | 1020.7 |
| 20260508200921 | 19 | 255 | 3.2 | 19.3 | 0.00 | 0.00 | 0.00 | 27 | 1020.7 |
| 20260508195920 | 19 | 271 | 3.2 | 17.7 | 0.00 | 0.00 | 0.00 | 30 | 1020.4 |
| 20260508194919 | 18 | 251 | 4.8 | 17.7 | 0.00 | 0.00 | 0.00 | 27 | 1020.6 |
| 20260508193918 | 18 | 267 | 3.2 | 16.1 | 0.00 | 0.00 | 0.00 | 28 | 1020.7 |
| 20260508192846 | 19 | 253 | 3.2 | 24.1 | 0.00 | 0.00 | 0.00 | 28 | 1020.8 |
| 20260508191711 | 18 | 257 | 4.8 | 24.1 | 0.00 | 0.00 | 0.00 | 29 | 1020.7 |
| 20260508190639 | 18 | 255 | 4.8 | 20.9 | 0.00 | 0.00 | 0.00 | 26 | 1020.7 |
| 20260508185637 | 17 | 271 | 3.2 | 16.1 | 0.00 | 0.00 | 0.00 | 30 | 1020.7 |
| 20260508184636 | 18 | 253 | 3.2 | 22.5 | 0.00 | 0.00 | 0.00 | 27 | 1020.7 |
| 20260508183634 | 17 | 256 | 3.2 | 22.5 | 0.00 | 0.00 | 0.00 | 24 | 1020.6 |
| 20260508182634 | 18 | 234 | 4.8 | 17.7 | 0.00 | 0.00 | 0.00 | 22 | 1020.6 |
| 20260508181633 | 18 | 245 | 3.2 | 17.7 | 0.00 | 0.00 | 0.00 | 26 | 1020.7 |